Location: HF.RADOM.PL
(51.4000°N, 21.1600°E)
Time: 08:12:57
(UTC+01:00)

NOAA 15 - Visible Passes

Search period start: 20 January 2020 00:00
Search period end: 30 January 2020 00:00
Orbit: 798 x 812 km, 98.7° (Epoch: 19 January)

Date Brightness Start Highest point End Pass type
(mag) Time Alt. Az. Time Alt. Az. Time Alt. Az.
20 Jan 7.3 06:01:15 10° NE 06:05:21 22° E 06:09:28 10° SE visible
20 Jan 4.6 17:26:08 10° SE 17:31:16 57° ENE 17:36:27 10° N visible
20 Jan 6.7 19:07:03 10° SSW 19:11:23 26° W 19:15:46 10° NW visible
21 Jan 7.7 05:37:08 10° NE 05:39:55 14° E 05:42:41 10° ESE visible
21 Jan 5.1 17:01:30 10° SE 17:06:19 38° ENE 17:11:10 10° N visible
21 Jan 5.9 18:41:10 10° SSW 18:46:05 39° W 18:51:03 10° NNW visible
22 Jan 5.7 06:50:10 10° NNE 06:55:23 53° E 07:00:35 10° S visible
22 Jan 5.5 16:37:10 10° ESE 16:41:27 26° ENE 16:45:45 10° N visible
22 Jan 5.1 18:15:39 10° S 18:20:52 62° WSW 18:26:08 10° NNW visible
22 Jan 7.8 20:01:23 10° W 20:01:45 10° W 20:02:07 10° WNW visible
23 Jan 6.6 06:25:19 10° NNE 06:30:09 34° E 06:34:56 10° SSE visible
23 Jan 4.5 17:50:28 10° SSE 17:55:44 86° ENE 18:01:05 10° NNW visible
23 Jan 7.3 19:32:55 10° SW 19:36:14 17° W 19:39:35 10° NW visible
24 Jan 7.3 06:00:42 10° NE 06:04:48 22° E 06:08:52 10° SE visible
24 Jan 4.6 17:25:34 10° SE 17:30:42 56° ENE 17:35:54 10° N visible
24 Jan 6.7 19:06:28 10° SSW 19:10:50 26° W 19:15:14 10° NW visible
25 Jan 7.7 05:36:37 10° NE 05:39:22 14° E 05:42:04 10° ESE visible
25 Jan 5.1 17:00:57 10° SE 17:05:45 37° ENE 17:10:36 10° N visible
25 Jan 5.9 18:40:35 10° SSW 18:45:31 40° W 18:50:31 10° NNW visible
26 Jan 5.1 18:15:05 10° S 18:20:18 63° WSW 18:25:35 10° NNW visible
26 Jan 7.8 20:00:25 10° W 20:01:10 10° W 20:01:55 10° WNW visible
27 Jan 6.6 06:24:46 10° NNE 06:29:35 33° E 06:34:22 10° SSE visible
27 Jan 4.5 17:49:54 10° SSE 17:55:10 85° ENE 18:00:31 10° NNW visible
27 Jan 7.3 19:32:17 10° SW 19:35:39 17° W 19:39:03 10° NW visible
28 Jan 7.4 06:00:10 10° NE 06:04:14 22° E 06:08:17 10° SE visible
28 Jan 4.7 17:25:01 10° SE 17:30:08 56° ENE 17:35:20 10° N visible
28 Jan 6.7 19:05:52 10° SSW 19:10:15 26° W 19:14:42 10° NW visible
29 Jan 7.7 05:36:06 10° NE 05:38:47 14° E 05:41:27 10° ESE visible
29 Jan 5.1 17:00:24 10° SE 17:05:12 37° ENE 17:10:03 10° N visible
29 Jan 5.9 18:39:59 10° SSW 18:44:57 41° W 18:49:58 10° NNW visible
